STARLINK-6361, 57379

Orbit data source: Space-Track

STARLINK-6361, 57379 is a payload satellite owned by SpaceX/Seattle (US) in LEO that was launched on Sun, 16 Jul 2023 UTC via an FALCON 9 launch vehicle from the Air Force Eastern Test Range (AFETR). Payload-class satellites include a variety of spacecraft equipped with specific instruments for various scientific and technological missions. These include communications satellites like Starlink; space stations such as the ISS; scientific satellites like the Hubble; Earth observation satellites from companies like Planet Labs, Umbra, and HawkEye 360; GPS; miniature CubeSats for education and research; and military/defense satellites.

Loading next visibility...
Identifier
57379, 2023-099BD
Orbit
LEO
Country
Flag of USUS
Related business
Manufacturer
SpaceX/Seattle
Mission
Operational Commercial Communications
Bus & Motor
STARLINK, Unknown motor
Mass
305 kg wet, ~290 kg dry
Launch date (UTC)
2023-07-16 (3 years ago)
Launch vehicle
FALCON 9
Launch site
Air Force Eastern Test Range (AFETR)
Object type
Payload
Rocket body
Debris
Shape & HBR
Box + 1 Pan, 10.1 m
Radar Cross Section
11.087 m², Large (>1 m²)

Expand to show TLE details & history
Last TLE update: 3 days ago

TLE from 3 days ago
0 STARLINK-6361
1 57379U 23099BD  26170.31741390  .00000318  00000-0  21081-4 0  9996
2 57379  43.0039  24.1836 0001028 269.9590  90.1144 15.27578698161787
Epoch: 2026-06-19T07:37Z
TLE epoch observation values (Epoch: 2026-06-19T07:37:04.560Z)
Latitude
-0.00003°
Longitude
2.36644°
Altitude
482.83 km
Speed
7.626 km/s
True Right ascension
01h 36m 44s
True Declination
0° 00' 00"
Sunlit
Object was in daylight at epoch
Visualization orbit readout
Latitude
Unknown
Longitude
Unknown
Altitude
Unknown
Speed
Unknown
Apparent Right ascension
Unknown
Apparent Declination
Unknown
Sunlit
N/A
Visualization observer readout
Local Sidereal Time
21:32:03
Azimuth
Unknown
Elevation
Unknown
Doppler factor
Unknown
Orbital elements
Apogee altitude
485.703 km
Perigee altitude
484.292 km
Semi-major axis
6,863.135 km
Eccentricity
0.0001
Inclination
43.0039°
RAAN
24.1836°
Arg. of periapsis
269.959°
True anomaly
90.12618°
Mean anomaly
90.1144°
Eccentric anomaly
90.12029°
Mean motion
3.81733 °/min
Orbital period
94.31 mins
BSTAR
0.000021081
Loading maneuver chart data...
Computing Atmospheric mass density...
Loading historical data...
Loading historical data...
Loading historical data...
Loading historical data...
Loading historical data...
Loading historical data...
Loading historical data...

Documentation

Showing up to 5 results
|